NOAA NWS Hourly Roundups by Site

Regional Weather Roundup for Des Moines, IA

To Select Another Site Choose from List

Select Site:  

000
ASUS43 KDMX 170706
RWRIA

WEATHER ROUNDUP FOR IOWA
NATIONAL WEATHER SERVICE DES MOINES IA
200 AM CDT FRI AUG 17 2018

NOTE: "FAIR" INDICATES FEW OR NO CLOUDS BELOW 12,000 FEET WITH NO
SIGNIFICANT WEATHER AND/OR OBSTRUCTIONS TO VISIBILITY.

* - THESE STATIONS ARE NOT NWS STATIONS...THUS NOT UNDER NWS
QUALITY CONTROL.  THEY ALSO DO NOT REPORT WEATHER SUCH
AS PRECIPITATION OR FOG.

IAZ001>003-012>014-020>022-031>034-043>046-170800-
   NORTHWEST IOWA

CITY           SKY/WX    TMP DP  RH WIND       PRES   REMARKS
CARROLL *      CLOUDY    64  64 100 W3        30.01F
CHEROKEE *     FOG       63  63 100 CALM      30.04S VSB 1/2
DENISON *      PTCLDY    64  64 100 CALM      30.05F FOG
LE MARS *      FOG       63  63 100 CALM      30.06S VSB 3/4
ORANGE CITY *  CLEAR     64  64 100 NW6       30.06S FOG
SHELDON *      PTCLDY    61  61 100 CALM      30.04S
SIOUX CITY     CLEAR     64  64 100 NW3       30.05F
SPENCER        CLEAR     64  62  93 NW6       30.03F
STORM LAKE *   MOCLDY    64  64 100 NW6       30.04S
$$

IAZ055>058-069>071-079>083-090>094-170800-
   SOUTHWEST IOWA

CITY           SKY/WX    TMP DP  RH WIND       PRES   REMARKS
ATLANTIC *     CLEAR     66  66 100 NW5       30.02F
AUDUBON *      CLEAR     66  63  88 CALM      30.04S
CLARINDA *     CLEAR     68  66  94 NW7       30.03F
COUNCIL BLFS * CLEAR     66  66 100 NW5       30.04F
CRESTON *      CLEAR     64  64 100 NW6       30.02S
HARLAN  *        N/A     66  66 100 NW3       30.03F
LAMONI         MOCLDY    68  65  90 N6          N/A
RED OAK *      CLEAR     66  66 100 NW7       30.02F
SHENANDOAH *   CLEAR     66  64  94 NW6       30.03F
$$

IAZ047>049-059>061-072>074-084-170800-
   CENTRAL IOWA

CITY           SKY/WX    TMP DP  RH WIND       PRES   REMARKS
AMES           CLOUDY    67  65  93 NW5       29.99R
ANKENY *       PTCLDY    66  64  94 W6        29.99S
BOONE *        PTCLDY    64  64 100 W6        30.00R
CHARITON *     CLEAR     66  64  94 NW6       29.97F
DES MOINES     PTCLDY    66  65  96 W7        29.98S
GRINNELL*      PTCLDY    64  63  96 NW5       29.98S FOG
KNOXVILLE *    PTCLDY    64  64 100 W6        29.96S
MARSHALLTOWN   CLOUDY    68  68 100 NW6       29.97S
NEWTON *       PTCLDY    64  64 100 NW6       29.98R
PELLA *        CLEAR     65  64  97 CALM      29.98S FOG
PERRY *        FAIR      64  64 100 W3        30.01S
$$

IAZ004>006-015-016-023>025-035-036-170800-
   NORTH CENTRAL IOWA

CITY           SKY/WX    TMP DP  RH WIND       PRES   REMARKS
ALGONA *       CLOUDY    68  66  94 NW8       30.01S
CLARION *      PTCLDY    66  64  94 CALM      30.00F
ESTHERVILLE    CLEAR     65  65 100 NW6       30.01F
FORT DODGE *   PTCLDY    67  66  97 CALM      30.01F
MASON CITY     PTCLDY    66  66 100 N5        30.00F
FOREST CITY *  FAIR      64  64 100 CALM      30.00F
WEBSTER CITY * CLOUDY    66  66 100 MISG      29.98S
IOWA FALLS *   FAIR      67  66  97 W5        30.00F
$$

IAZ007>011-017>019-026>030-037>042-050>054-066-170800-
   NORTHEAST IOWA

CITY           SKY/WX    TMP DP  RH WIND       PRES   REMARKS
CEDAR RAPIDS   CLOUDY    68  67  96 NW8       29.93F
CHARLES CITY * FAIR      66  64  94 N5        29.99S
CLINTON *      FOG       65  65 100 N7        29.94  VSB 1
DECORAH *      CLOUDY    68  66  94 VRB3      29.97S
DUBUQUE        CLOUDY    69  68  96 NE3       29.95F
MONTICELLO *     N/A     68  68 100 N5        29.94S
OELWEIN *      CLOUDY    68  68 100 NE8       29.98S
WATERLOO       CLOUDY    67  67 100 NW5       29.95S
$$

IAZ064-065-067-068-078-170800-
   EAST CENTRAL IOWA

CITY           SKY/WX    TMP DP  RH WIND       PRES   REMARKS
DAVENPORT      FOG       65  64  97 CALM      29.94S VSB 1/2
IOWA CITY      CLOUDY    69  67  93 N7        29.94F
MT. PLEASANT * MOCLDY    70  70 100 NW3       29.95R
MUSCATINE *    FAIR      70  66  88 CALM      29.94R
QUAD CITIES    FAIR      70  68  93 W3        29.90F FOG
$$

IAZ062-063-075>077-085>089-095>099-170800-
   SOUTHEAST IOWA

CITY           SKY/WX    TMP DP  RH WIND       PRES   REMARKS
BURLINGTON     MOCLDY    71  69  93 SW5       29.93S
FAIRFIELD *    CLEAR     68  66  94 W5        29.95F
FORT MADISON * CLOUDY    72  72 100 W3        29.95S
KEOKUK *       CLOUDY    73  72  94 S7        29.96R
OSKALOOSA *    FAIR      64  64  99 W5        29.96F FOG
CENTERVILLE *    N/A     66  66 100 CALM      29.99F
OTTUMWA        FOG       65  65 100 CALM      29.96S VSB 1/2
WASHINGTON *   CLOUDY    68  68 100 NW6       29.95F
$$

ABBREVIATIONS USED IN REMARKS
   TC - TEMPERATURES IN CELSIUS
  WCI - WIND CHILL INDEX
   HX - HEAT INDEX
  VSB - VISIBILITY
$$



 

View Past Reports for Des Moines, IA.

Products Courtesy of NOAA-NWS
NWS Information Parsing Script by Ken True at Saratoga Weather - Script by SE Lincoln Weather.